Regional Weather Roundup
Issued by NWS

Home | Current Version | Previous Version | Graphics & Text | Print | Product List | Glossary Off
Versions: 1 2 3 4 5 6 7 8 9 10 11 12 13 14 15 16 17 18 19 20 21 22 23 24 25 26 27 28 29 30 31 32 33 34 35 36 37 38 39 40 41 42 43 44 45 46 47 48 49 50

000
ASUS43 KLMK 201310
RWRKY
KENTUCKY REGIONAL WEATHER ROUNDUP
NATIONAL WEATHER SERVICE LOUISVILLE KY
800 AM EST SAT JAN 20 2018

NOTE "FAIR" INDICATES FEW OR NO CLOUDS BELOW 12,000 FEET
WITH NO SIGNIFICANT WEATHER AND/OR OBSTRUCTIONS TO VISIBILITY.

KYZ001>023-026-027-061>063-070>075-201400-
WESTERN AND SOUTH CENTRAL KENTUCKY

CITY           SKY/WX    TMP DP  RH WIND       PRES   REMARKS
PADUCAH        MOCLDY    37  19  48 S3        30.13S
HENDERSON      FAIR      38  20  48 SW13      30.11S WCI  30
OWENSBORO      FAIR      35  21  56 S9        30.13R WCI  28
HOPKINSVILLE   CLOUDY    41  21  45 S8        30.17R
BOWLING GREEN  CLOUDY    41  29  62 SW5       30.19R
GLASGOW        CLOUDY    41  28  60 S6        30.18R
$$

KYZ024-025-028>034-038-045-046-053-201400-
NORTH CENTRAL KENTUCKY

CITY           SKY/WX    TMP DP  RH WIND       PRES   REMARKS
LOUISVILLE/SDF MOCLDY    41  20  43 SW7       30.12R
LOUISVILLE/LOU FAIR      37  22  54 S8        30.13R WCI  31
FORT KNOX      PTCLDY    38  22  52 S9        30.14R WCI  32
$$

KYZ035>037-039>044-047>052-055>060-089>105-201400-
NORTHEAST KENTUCKY

CITY           SKY/WX    TMP DP  RH WIND       PRES   REMARKS
LEXINGTON      CLOUDY    40  27  59 SW10      30.14R WCI  33
COVINGTON      MOCLDY    33  25  72 S10       30.07R WCI  25
FRANKFORT      FAIR      40  23  50 SW10      30.12R WCI  33
$$

KYZ054-064>069-076>088-106>120-201400-
SOUTHEAST KENTUCKY

CITY           SKY/WX    TMP DP  RH WIND       PRES   REMARKS
JACKSON        CLOUDY    44  33  65 VRB7      30.17R
LONDON         CLOUDY    44  31  60 SW7       30.19R
SOMERSET       CLOUDY    39  28  65 S3        30.21R
MIDDLESBORO    CLOUDY    32  29  86 CALM      30.25S
MONTICELLO     NOT AVBL
$$





USA.gov is the U.S. government's official web portal to all federal, state and local government web resources and services.